カタログに戻る

IRIDIUM 33

運用中通信PO
NORAD 24946·PAYLOAD·🇺🇸 United States

打ち上げ Sep 14, 1997 から Baikonur Cosmodrome

Loading…

次のパス (今後24時間)

TLE

最新Source: Space-Track

元期: Sep 14, 2026, 02:51 UTC

1 24946U 97051C   26257.11877829  .00000169  00000-0  52178-4 0  9995
2 24946  86.3877 312.6437 0009302  47.2614 312.9364 14.35177135517840

AllMySatでIRIDIUM 33をリアルタイム追跡

Download on the App Store